Location: ??????????
(42.1626°N, 44.1160°E)
Time: 14:09:36
(UTC+00:00)

Cosmos 1666 - Pass Details

Date: 03 March 2021
Orbit: 497 x 518 km, 82.5° (Epoch: 21 April)

Event Time Altitude Azimuth Distance (km) Brightness Sun altitude
Rises 16:52:04 0° 197° (SSW) 2,570 6.3 -22.2°
Reaches altitude 10° 16:54:12 10° 203° (SSW) 1,692 5.4 -22.6°
Maximum altitude 16:57:50 52° 280° (W) 622 3.4 -23.3°
Drops below altitude 10° 17:01:30 10° 358° (N) 1,712 5.5 -23.9°
Sets 17:03:40 0° 4° (N) 2,603 6.4 -24.3°
